Location: Unspecified
(44.0704°N, 88.6889°W)
Time: 16:38:47
(UTC+02:00)

Courier 1B - Visible Passes

Search period start: 16 June 2019 00:00
Search period end: 26 June 2019 00:00
Orbit: 963 x 1209 km, 28.3° (Epoch: 16 June)

Date Brightness Start Highest point End Pass type
(mag) Time Alt. Az. Time Alt. Az. Time Alt. Az.
16 Jun 9.3 04:19:13 10° SSW 04:23:40 16° SSE 04:28:09 10° SE visible
16 Jun 8.9 06:10:50 10° SW 06:15:55 24° S 06:15:55 24° S visible
17 Jun 8.9 05:17:23 10° SW 05:23:07 23° S 05:25:42 19° SE visible
17 Jun 9.4 07:10:27 10° SW 07:12:36 17° SW 07:12:36 17° SW visible
18 Jun 9.1 04:24:07 10° SSW 04:29:27 21° SSE 04:34:54 10° ESE visible
18 Jun 8.9 06:16:42 10° SW 06:22:13 24° S 06:22:13 24° S visible
19 Jun 8.9 05:23:05 10° SW 05:28:59 24° S 05:31:41 20° SSE visible
19 Jun 9.5 07:16:50 10° WSW 07:18:34 15° SW 07:18:34 15° SW visible
20 Jun 9.0 04:29:37 10° SW 04:35:19 23° S 04:41:04 10° SE visible
20 Jun 9.0 06:22:54 10° WSW 06:27:57 22° SSW 06:27:57 22° SSW visible
21 Jun 9.0 05:29:08 10° SW 05:34:52 23° S 05:37:16 20° SSE visible
21 Jun 9.8 07:23:49 10° SW 07:24:08 11° SW 07:24:08 11° SW visible
22 Jun 9.0 04:35:31 10° SW 04:41:12 24° S 04:46:32 12° SE visible
22 Jun 9.3 06:29:32 10° SW 06:33:24 18° SSW 06:33:24 18° SSW visible
23 Jun 9.1 05:35:32 10° SW 05:40:44 20° SSW 05:42:39 18° S visible
24 Jun 9.1 04:41:44 10° SW 04:47:06 22° S 04:51:54 12° SE visible
24 Jun 9.6 06:37:05 10° SW 06:38:45 12° SSW 06:38:45 12° SSW visible
25 Jun 9.4 05:42:31 10° SW 05:46:34 15° SSW 05:48:00 15° S visible
